Wind_Speed
47 46 48 42 43 42 33 10 5 25 34 7 6 14 7 6 15 1 3 3 4 4 7 7 8 9 8 8 10 9 7 6 4 9 2 2 2 5 5 4 4 1 4 6
46 48 52 47 39 43 28 8 5 24 31 13 13 8 17 7 6 6 6 4 1 4 2 4 7 8 4 7 8 10 8 1 3 6 5 4 4 5 4 4 4 6 5 6
48 50 52 48 48 44 25 5 6 5 10 13 20 20 13 23 14 11 3 3 3 2 3 6 6 7 4 7 8 5 9 5 8 8 8 4 4 5 5 6 3 4 6 6
50 53 53 55 55 51 28 4 7 7 13 20 17 20 12 16 16 10 7 5 9 3 3 3 4 2 3 1 6 5 5 6 5 6 4 5 4 3 7 5 5 6 6 7
49 52 51 54 56 46 22 8 3 4 2 17 28 18 22 25 22 8 10 15 3 10 9 7 3 4 3 6 2 5 1 3 3 2 3 2 4 7 6 6 4 6 5 5
55 51 50 47 52 49 6 13 3 2 7 17 19 29 20 21 17 14 15 15 16 11 13 8 10 8 3 6 10 6 6 6 4 4 2 3 5 8 7 6 4 5 6 8
57 53 48 45 48 60 7 18 2 2 4 15 23 19 23 19 20 20 13 20 9 6 3 1 4 6 8 7 5 4 7 6 3 3 2 2 6 4 5 5 2 4 4 5
55 52 50 45 49 53 37 25 3 2 3 9 11 14 21 15 14 19 20 16 9 4 2 2 4 5 4 3 6 5 2 6 3 5 4 5 1 3 7 6 3 2 6 7
49 48 48 47 41 46 46 21 11 1 3 8 7 18 14 16 13 10 18 7 5 4 3 3 7 5 5 4 3 5 6 6 5 3 5 7 8 4 5 5 2 6 5 7
44 43 41 40 39 42 40 13 11 4 2 3 7 12 8 11 14 6 3 9 5 2 3 2 4 4 5 7 10 5 3 3 5 3 3 7 7 5 5 6 8 8 7 6
43 42 40 41 40 45 43 11 18 4 1 5 5 6 4 10 13 10 4 4 2 3 4 3 4 3 5 4 6 8 7 7 4 3 3 6 5 4 8 6 3 6 6 5
37 38 41 42 34 38 40 8 25 9 1 3 10 15 20 11 2 6 4 2 6 6 3 2 2 2 1 4 3 1 2 6 6 8 6 2 3 4 1 3 9 5 7 6
35 37 37 36 37 34 36 17 25 7 3 6 2 6 4 8 18 21 5 2 2 2 3 4 2 3 3 3 4 3 2 3 4 4 2 1 3 4 5 4 6 6 6 12
30 30 31 33 32 32 33 19 20 19 2 2 5 6 8 14 13 22 24 6 5 5 2 3 3 3 4 3 2 2 4 6 6 2 1 4 5 4 6 9 10 12 11 9
24 30 34 33 37 38 25 20 22 19 6 2 5 15 11 11 12 14 21 9 6 3 3 3 3 3 3 2 2 2 4 7 6 5 12 5 5 7 7 11 9 10 15 12
25 29 46 41 36 29 19 3 10 20 6 1 3 5 4 6 7 9 5 5 3 3 4 3 2 2 3 4 4 5 3 3 4 6 12 8 13 8 5 11 10 11 13 13
28 30 32 32 29 27 5 6 4 28 10 2 3 5 4 4 1 2 2 3 3 3 3 2 2 1 3 3 4 4 4 7 12 16 18 10 4 6 9 13 16 20 19 18
29 28 27 27 23 7 6 10 10 31 7 2 3 4 4 5 1 1 2 3 1 4 3 1 2 1 2 2 1 7 10 13 10 7 9 12 17 14 13 18 19 16 14 12
27 26 25 19 3 0 3 10 31 12 4 5 3 2 3 1 2 1 3 2 2 2 0 1 3 2 2 2 2 7 13 5 13 14 18 17 17 16 14 14 13 15 11 10
21 21 4 3 10 15 20 3 3 2 2 2 2 1 2 1 0 2 1 2 2 2 4 2 3 2 4 3 5 6 9 16 18 19 12 15 15 14 13 12 11 11 10 14
8 4 3 14 27 6 2 2 2 2 2 3 3 3 4 1 3 3 3 2 3 4 2 4 3 2 3 4 9 8 9 10 5 11 13 11 17 17 15 13 15 17 16 15
12 8 22 10 3 3 2 2 2 4 4 1 3 3 1 1 3 3 3 3 2 2 3 3 3 2 6 7 12 11 8 11 14 17 17 18 18 19 19 18 17 16 17 21
2 5 5 2 1 4 6 6 2 2 2 2 1 1 1 2 4 2 3 5 1 1 2 2 1 3 6 8 11 12 12 16 16 17 22 23 22 22 23 19 18 20 19 18
3 2 4 3 2 2 0 0 1 2 2 0 3 2 2 0 3 1 5 1 2 2 1 4 1 6 10 10 10 15 14 14 16 16 20 21 22 19 20 21 22 22 17 16
4 4 5 4 1 1 2 1 1 3 1 1 2 2 2 2 3 2 3 2 3 4 3 1 4 10 12 11 12 13 13 12 13 18 18 20 20 20 19 18 19 21 21 20
4 6 4 4 2 4 4 4 3 4 2 1 3 3 4 3 2 2 2 3 1 0 1 3 9 11 11 12 11 11 14 16 17 18 20 20 19 19 18 18 19 20 20 19
5 3 3 3 1 3 3 4 4 4 2 2 2 5 3 1 3 3 4 3 2 2 3 5 9 10 11 11 12 15 18 18 18 19 19 20 21 24 20 16 14 15 16 16
Wind_Direction
217 227 201 204 199 203 190 173 212 172 166 180 191 219 192 238 239 45 304 324 244 238 184 186 187 203 205 186 151 158 197 137 172 209 212 165 205 180 134 121 233 176 153 268
210 213 190 194 196 196 172 179 219 174 173 199 207 210 211 247 218 194 219 244 320 2 229 189 194 199 221 153 153 158 179 180 90 345 5 17 230 207 169 120 83 202 146 255
206 209 185 191 197 200 176 187 188 172 198 223 197 193 197 213 234 260 318 297 300 260 283 230 211 206 194 170 200 117 114 144 157 186 207 171 192 202 174 144 129 194 222 262
198 193 185 194 194 201 182 200 220 190 191 208 209 191 197 202 212 200 199 268 231 202 313 299 170 149 136 355 170 116 135 165 161 217 190 187 214 215 165 173 202 164 244 205
188 185 188 190 191 186 194 181 193 169 235 192 203 192 207 204 206 213 208 230 230 216 219 230 296 157 187 188 194 138 198 181 121 90 7 202 198 220 201 207 196 258 253 242
182 181 187 188 189 192 166 207 272 247 194 181 191 212 197 202 195 222 243 213 226 240 236 238 246 225 260 204 156 163 136 132 108 220 4 15 328 224 212 221 195 177 196 221
177 181 189 190 191 198 174 196 141 241 201 186 202 192 203 199 208 211 203 236 219 234 88 65 359 52 73 59 45 120 136 109 87 158 48 318 247 309 214 153 299 241 142 131
175 180 192 196 193 195 207 204 211 280 213 190 189 197 193 200 208 225 226 250 264 197 209 316 297 349 35 23 21 47 99 117 100 138 190 292 332 211 160 154 235 299 134 128
175 180 190 198 196 193 201 233 253 31 311 202 173 183 184 192 204 225 232 232 236 94 108 130 186 198 172 183 72 43 65 61 118 146 151 208 230 230 157 122 247 200 166 167
175 183 189 195 192 189 192 207 220 169 301 303 195 185 175 180 199 230 161 178 182 106 124 173 180 231 182 158 162 170 71 29 158 129 192 284 245 216 149 151 235 166 166 162
181 186 191 193 193 188 182 226 185 124 181 280 9 355 175 182 203 197 181 119 220 85 159 148 215 140 220 127 172 173 159 149 182 86 82 274 180 113 169 206 64 126 135 129
184 190 192 190 186 192 182 222 183 175 203 315 333 290 273 237 223 173 213 205 166 181 129 172 121 141 61 149 209 120 189 185 177 177 206 254 286 240 129 155 136 148 132 124
184 178 172 175 185 181 185 202 160 127 32 299 234 231 273 281 234 233 179 251 202 160 167 158 160 179 134 155 243 109 249 153 112 116 216 32 353 54 55 64 103 103 104 131
182 180 180 183 186 189 184 184 170 173 207 226 281 298 301 293 243 226 215 199 122 107 94 131 145 147 196 174 167 213 198 134 128 81 71 83 20 61 108 90 88 88 74 102
182 191 191 193 183 169 145 152 167 173 174 283 312 318 290 306 234 208 203 169 129 126 105 115 204 174 136 325 94 312 243 162 168 203 190 144 147 146 136 118 114 110 114 104
145 134 149 146 150 144 120 94 196 191 222 215 294 304 266 309 177 115 129 147 102 115 136 191 181 318 122 160 190 210 238 245 181 173 131 100 110 93 94 114 114 107 110 113
128 123 131 144 148 153 149 159 128 190 192 92 304 284 299 351 36 39 137 71 91 110 136 76 145 169 86 108 190 167 128 105 105 114 110 85 136 143 116 113 110 105 99 102
131 127 131 140 149 149 247 256 282 168 114 93 252 261 336 8 352 88 312 108 52 33 117 90 110 81 94 238 319 113 120 113 101 41 79 108 114 112 113 116 118 109 107 108
128 126 126 117 97 160 226 154 151 160 164 172 197 240 236 55 120 14 24 101 126 12 126 343 84 290 198 4 160 163 150 135 124 102 104 113 116 124 125 123 118 114 114 108
132 135 150 164 191 171 123 161 143 144 202 221 238 341 242 205 2 115 237 136 134 66 246 142 63 280 322 28 119 113 121 122 123 109 111 120 122 129 130 125 123 119 115 111
161 191 187 130 140 129 92 154 157 143 206 203 215 130 227 87 160 134 239 121 103 185 208 124 166 236 200 143 116 129 138 130 89 107 123 127 135 137 129 116 112 114 115 118
194 125 106 127 84 63 88 171 145 192 213 245 181 214 133 341 57 78 340 100 55 117 142 110 199 214 132 127 121 130 122 113 114 123 126 129 126 125 119 118 117 116 120 127
124 46 71 92 10 120 178 187 186 177 245 244 174 80 94 40 44 47 76 65 139 56 73 206 210 143 117 115 114 104 109 111 109 108 110 111 110 115 120 115 119 120 117 127
71 72 74 50 60 58 51 290 122 207 229 319 80 67 85 286 61 353 75 350 73 61 143 226 148 131 117 114 117 115 111 111 111 111 112 110 107 106 110 116 127 123 117 128
63 48 59 56 320 327 315 327 29 333 275 83 90 77 86 39 92 44 95 90 198 190 225 148 130 123 123 118 116 117 118 118 115 115 112 113 117 113 108 113 120 124 124 123
56 39 30 349 30 11 8 358 8 359 339 332 55 103 70 54 104 79 40 131 128 127 11 112 114 114 111 114 114 114 113 112 110 113 119 118 118 115 116 122 128 129 129 126
37 27 360 348 36 21 359 349 344 315 23 34 20 53 43 39 61 48 15 22 347 353 62 98 118 120 118 112 106 106 107 108 112 114 113 111 117 121 118 120 132 129 132 126
Height
687 699 707 721 732 743 753 759 759 750 758 763 759 756 755 750 744 743 745 742 741 737 739 744 747 749 740 732 741 756 755 774 792 776 759 759 763 771 777 809 795 807 818 798
678 689 697 711 724 733 740 748 749 748 749 743 743 749 750 750 744 745 745 741 738 736 734 744 739 740 727 731 738 748 753 774 792 782 772 768 772 769 768 781 797 801 815 794
667 680 687 702 713 726 733 739 744 740 741 727 728 741 743 747 740 746 745 743 738 736 734 732 735 735 728 729 732 735 737 762 768 788 772 763 765 760 763 773 804 790 794 772
655 668 679 693 701 717 725 725 722 710 715 720 723 729 734 741 740 740 740 743 742 741 743 731 732 731 731 729 735 733 738 757 757 757 753 753 751 754 764 767 770 780 769 773
647 662 673 683 693 708 715 711 712 709 708 714 720 721 721 730 734 734 736 738 732 736 744 736 730 731 731 732 729 733 738 758 748 759 758 754 756 755 757 760 759 764 761 762
640 656 669 678 685 698 699 701 704 704 702 708 720 698 713 724 730 729 728 730 734 737 734 728 724 721 721 717 726 737 742 756 771 773 772 767 785 764 755 751 749 752 764 755
635 652 665 672 683 688 695 698 702 701 703 698 689 706 712 720 721 728 725 725 732 726 720 721 722 723 724 725 727 725 746 759 777 789 787 798 753 747 744 751 753 753 750 751
634 648 660 668 675 685 696 700 702 700 708 694 698 703 709 719 720 723 723 722 721 720 726 737 738 748 733 732 736 730 731 758 783 785 791 772 749 752 752 750 755 749 753 757
632 644 654 663 673 682 694 701 703 704 700 687 690 698 705 714 719 725 714 719 719 723 734 750 743 745 737 741 737 739 741 748 763 797 787 788 754 738 737 742 769 749 751 754
631 641 652 662 672 681 692 699 702 705 702 691 687 691 698 705 711 710 714 716 720 718 747 753 751 743 726 743 747 753 764 772 768 798 787 769 743 735 737 761 759 744 749 752
631 641 651 661 670 678 686 696 699 701 705 699 694 694 691 695 698 707 711 717 717 729 736 742 746 753 732 736 729 738 741 763 781 788 791 765 732 736 747 741 738 741 747 750
630 639 648 657 663 676 684 692 696 704 707 699 699 695 693 695 694 700 705 700 702 707 720 735 739 738 753 733 741 726 734 732 744 747 749 734 733 729 731 731 734 744 747 753
631 638 647 653 664 674 683 689 692 702 705 701 695 690 686 686 688 691 696 700 695 698 698 717 726 728 732 736 738 724 719 722 734 737 735 736 737 736 736 736 739 745 748 754
631 638 647 657 665 674 684 685 691 703 706 706 691 681 679 680 681 680 683 684 688 692 700 715 725 728 717 734 721 723 714 718 732 742 739 738 739 741 742 745 748 751 755 758
633 639 646 655 665 676 679 687 693 700 705 699 691 680 674 673 673 673 677 680 685 693 706 719 718 711 717 722 719 728 716 710 723 729 718 722 734 742 745 746 752 756 756 766
633 631 642 651 662 671 678 694 697 698 704 706 703 684 677 673 669 669 671 675 683 689 696 709 703 701 706 719 714 698 704 702 699 702 711 724 735 743 748 750 754 759 763 768
639 644 652 662 669 677 682 689 692 698 703 705 708 694 674 670 671 674 675 678 686 688 697 706 706 705 705 730 715 696 704 706 708 710 715 737 740 748 752 754 759 763 769 774
648 653 660 667 673 679 681 682 684 692 700 703 706 691 683 674 677 679 680 683 687 691 698 704 711 709 720 711 705 704 708 711 715 716 714 724 739 750 757 761 764 769 775 780
656 662 668 675 680 682 681 683 689 693 697 700 702 688 683 678 681 684 685 685 697 700 704 703 701 713 706 711 709 711 708 707 720 726 728 736 744 753 760 764 769 772 780 783
661 666 670 675 674 677 681 686 689 693 691 690 691 683 681 680 687 687 693 692 698 702 704 699 705 708 704 706 709 716 718 716 719 728 740 745 751 757 763 768 772 775 781 786
659 660 659 662 668 672 682 687 686 689 690 687 682 679 678 680 681 685 690 687 699 691 693 691 704 707 709 709 711 718 722 721 721 724 735 742 745 753 763 772 777 781 784 789
649 643 653 663 668 677 679 684 689 687 683 682 679 679 676 676 674 684 683 685 696 691 697 700 700 705 704 708 709 719 722 724 728 732 737 746 753 759 765 773 779 784 788 792
646 647 659 665 677 674 680 675 680 682 684 681 681 680 682 681 683 693 696 700 702 701 696 696 709 708 708 711 715 722 727 730 735 740 746 753 758 765 769 777 783 787 791 795
655 657 668 672 677 682 683 682 682 687 685 681 680 684 685 692 691 697 700 699 699 719 717 709 710 710 712 718 723 726 735 739 743 748 754 759 764 772 777 780 785 789 794 798
662 666 677 683 687 687 686 685 684 685 683 682 682 686 688 691 693 700 699 700 695 712 713 709 711 714 719 725 729 734 740 745 749 754 759 766 772 776 782 787 790 794 797 801
675 685 685 689 686 689 688 687 684 684 684 684 684 691 695 693 697 696 703 711 711 709 713 714 715 720 725 729 735 740 745 749 755 760 766 771 776 780 786 791 795 798 801 804
690 700 700 698 697 697 696 694 693 689 687 686 690 688 696 700 699 707 713 715 717 716 716 718 721 726 731 736 741 746 750 756 762 767 772 776 781 785 790 794 800 802 805 806